Location: Treviso
(45.6669°N, 12.2430°E)
Time: 10:49:59
(UTC+02:00)

ISS - Pass Details

Date: 01 July 2022
Orbit: 414 x 420 km, 51.6° (Epoch: 02 July)

Event Time Altitude Azimuth Distance (km) Brightness Sun altitude
Exits shadow 03:22:09 35° 189° (S) 698 -3.2 -15.4°
Maximum altitude 03:23:04 45° 144° (SE) 576 -3.3 -15.3°
Drops below altitude 10° 03:26:19 10° 70° (ENE) 1,500 -0.2 -15.0°
Sets 03:28:28 0° 64° (ENE) 2,368 1.1 -14.8°
